Wetterdaten: aktuell Samstag, 17.02.2018 22:15
Datum Zeit Temp. A. Aussen2m Boden Feuchte A. Feuchte 2 Luftdruck Regen Wind Richtung Richtung Sonnenschein
17.02.2018 22:15 0,8 C 0,7 C 0,2 C 80 % 78 % 1022,9 hPa 0,0 l/m 0,6 km/h (0 Bft) O-SO 105 0 min
17.02.2018 22:10 0,8 C 0,8 C 0,2 C 79 % 77 % 1022,9 hPa 0,0 l/m 0,6 km/h (0 Bft) SO 125 0 min
17.02.2018 22:05 0,9 C 0,8 C 0,2 C 79 % 77 % 1022,9 hPa 0,0 l/m 1,2 km/h (1 Bft) SO 130 0 min
17.02.2018 22:00 1,0 C 0,9 C 0,2 C 79 % 77 % 1022,9 hPa 0,0 l/m 0,6 km/h (0 Bft) O-SO 115 0 min
17.02.2018 21:55 1,1 C 0,9 C 0,2 C 78 % 77 % 1022,9 hPa 0,0 l/m 1,2 km/h (1 Bft) O-SO 115 0 min
17.02.2018 21:50 1,2 C 1,0 C 0,2 C 78 % 77 % 1022,9 hPa 0,0 l/m 1,8 km/h (1 Bft) O-SO 110 0 min
17.02.2018 21:45 1,2 C 1,1 C 0,4 C 78 % 77 % 1022,9 hPa 0,0 l/m 1,2 km/h (1 Bft) SO 135 0 min
17.02.2018 21:40 1,2 C 1,1 C 0,4 C 78 % 77 % 1022,9 hPa 0,0 l/m 1,2 km/h (1 Bft) O-SO 105 0 min
17.02.2018 21:35 1,3 C 1,1 C 0,4 C 77 % 76 % 1022,9 hPa 0,0 l/m 0,6 km/h (0 Bft) O 95 0 min
17.02.2018 21:30 1,3 C 1,2 C 0,4 C 77 % 76 % 1022,9 hPa 0,0 l/m 1,8 km/h (1 Bft) O-SO 105 0 min
17.02.2018 21:25 1,4 C 1,2 C 0,4 C 77 % 76 % 1022,9 hPa 0,0 l/m 1,2 km/h (1 Bft) SO 125 0 min
17.02.2018 21:20 1,3 C 1,2 C 0,4 C 77 % 76 % 1022,9 hPa 0,0 l/m 0,6 km/h (0 Bft) SO 140 0 min
17.02.2018 21:15 1,3 C 1,3 C 0,6 C 77 % 75 % 1021,9 hPa 0,0 l/m 0,0 km/h (0 Bft) SO 130 0 min
17.02.2018 21:10 1,4 C 1,3 C 0,6 C 76 % 75 % 1021,9 hPa 0,0 l/m 0,0 km/h (0 Bft) SO 135 0 min
17.02.2018 21:05 1,5 C 1,3 C 0,6 C 76 % 75 % 1021,9 hPa 0,0 l/m 0,0 km/h (0 Bft) SO 135 0 min
17.02.2018 21:00 1,6 C 1,4 C 0,6 C 75 % 75 % 1021,9 hPa 0,0 l/m 0,6 km/h (0 Bft) NO 55 0 min
17.02.2018 20:55 1,7 C 1,5 C 0,6 C 75 % 75 % 1021,9 hPa 0,0 l/m 1,2 km/h (1 Bft) O-SO 110 0 min
17.02.2018 20:50 1,7 C 1,4 C 0,6 C 75 % 74 % 1021,9 hPa 0,0 l/m 1,2 km/h (1 Bft) O 80 0 min
17.02.2018 20:45 1,8 C 1,4 C 0,6 C 75 % 74 % 1021,9 hPa 0,0 l/m 2,4 km/h (1 Bft) O-SO 110 0 min
17.02.2018 20:40 1,7 C 1,4 C 0,8 C 75 % 73 % 1021,9 hPa 0,0 l/m 0,0 km/h (0 Bft) SO 125 0 min
17.02.2018 20:35 1,7 C 1,6 C 0,8 C 75 % 72 % 1021,9 hPa 0,0 l/m 0,0 km/h (0 Bft) O-SO 115 0 min
17.02.2018 20:30 1,8 C 1,8 C 0,8 C 74 % 72 % 1022,9 hPa 0,0 l/m 0,0 km/h (0 Bft) S 180 0 min
17.02.2018 20:25 1,9 C 2,0 C 1,1 C 74 % 72 % 1022,9 hPa 0,0 l/m 0,0 km/h (0 Bft) SO 135 0 min
17.02.2018 20:20 2,0 C 2,1 C 1,1 C 73 % 72 % 1022,9 hPa 0,0 l/m 0,6 km/h (0 Bft) SO 125 0 min
17.02.2018 20:15 2,1 C 2,2 C 1,1 C 73 % 72 % 1022,9 hPa 0,0 l/m 0,6 km/h (0 Bft) O 95 0 min
17.02.2018 20:10 2,2 C 2,2 C 1,3 C 73 % 72 % 1022,9 hPa 0,0 l/m 1,2 km/h (1 Bft) O-SO 115 0 min
17.02.2018 20:05 2,3 C 2,3 C 1,3 C 73 % 71 % 1022,9 hPa 0,0 l/m 0,0 km/h (0 Bft) O 90 0 min
17.02.2018 20:00 2,4 C 2,4 C 1,3 C 72 % 71 % 1022,9 hPa 0,0 l/m 0,6 km/h (0 Bft) SO 135 0 min
17.02.2018 19:55 2,5 C 2,6 C 1,3 C 72 % 71 % 1022,9 hPa 0,0 l/m 0,0 km/h (0 Bft) SO 140 0 min
17.02.2018 19:50 2,6 C 2,7 C 1,5 C 71 % 70 % 1022,9 hPa 0,0 l/m 0,0 km/h (0 Bft) O-SO 120 0 min
17.02.2018 19:45 2,7 C 2,9 C 1,5 C 71 % 70 % 1021,9 hPa 0,0 l/m 0,0 km/h (0 Bft) O-SO 110 0 min
17.02.2018 19:40 2,8 C 3,1 C 1,5 C 70 % 69 % 1021,9 hPa 0,0 l/m 0,6 km/h (0 Bft) O 95 0 min
17.02.2018 19:35 2,9 C 3,1 C 1,5 C 70 % 69 % 1021,9 hPa 0,0 l/m 0,6 km/h (0 Bft) SO 125 0 min
17.02.2018 19:30 3,1 C 3,3 C 1,5 C 69 % 69 % 1022,9 hPa 0,0 l/m 0,6 km/h (0 Bft) O 100 0 min
17.02.2018 19:25 3,1 C 3,4 C 1,7 C 69 % 68 % 1022,9 hPa 0,0 l/m 1,2 km/h (1 Bft) O 95 0 min
17.02.2018 19:20 3,3 C 3,4 C 1,7 C 68 % 68 % 1022,9 hPa 0,0 l/m 1,2 km/h (1 Bft) SO 125 0 min
17.02.2018 19:15 3,4 C 3,6 C 1,7 C 68 % 68 % 1021,9 hPa 0,0 l/m 1,2 km/h (1 Bft) O 95 0 min
17.02.2018 19:10 3,6 C 3,7 C 1,7 C 68 % 68 % 1021,9 hPa 0,0 l/m 1,8 km/h (1 Bft) O 90 0 min
17.02.2018 19:05 3,6 C 3,8 C 1,7 C 68 % 68 % 1021,9 hPa 0,0 l/m 1,8 km/h (1 Bft) O 90 0 min
17.02.2018 19:00 3,6 C 3,8 C 1,7 C 68 % 68 % 1021,9 hPa 0,0 l/m 1,8 km/h (1 Bft) O-SO 115 0 min
17.02.2018 18:55 3,7 C 3,9 C 1,7 C 68 % 68 % 1021,9 hPa 0,0 l/m 2,4 km/h (1 Bft) O 85 0 min
17.02.2018 18:50 3,8 C 4,0 C 1,9 C 67 % 68 % 1021,9 hPa 0,0 l/m 0,6 km/h (0 Bft) O-SO 120 0 min
17.02.2018 18:45 3,9 C 4,0 C 1,9 C 67 % 67 % 1021,9 hPa 0,0 l/m 2,4 km/h (1 Bft) O-SO 110 0 min
17.02.2018 18:40 3,9 C 4,1 C 1,9 C 67 % 67 % 1021,9 hPa 0,0 l/m 1,8 km/h (1 Bft) O-SO 110 0 min
17.02.2018 18:35 4,0 C 4,2 C 1,9 C 67 % 67 % 1021,9 hPa 0,0 l/m 1,2 km/h (1 Bft) O 100 0 min
17.02.2018 18:30 4,1 C 4,3 C 1,9 C 67 % 66 % 1020,9 hPa 0,0 l/m 2,4 km/h (1 Bft) O 85 0 min
17.02.2018 18:25 4,2 C 4,3 C 2,1 C 66 % 66 % 1020,9 hPa 0,0 l/m 6,1 km/h (2 Bft) NO 55 0 min
17.02.2018 18:20 4,2 C 4,4 C 2,1 C 66 % 66 % 1020,9 hPa 0,0 l/m 2,4 km/h (1 Bft) SO 130 0 min
17.02.2018 18:15 4,3 C 4,5 C 2,1 C 65 % 66 % 1021,9 hPa 0,0 l/m 2,4 km/h (1 Bft) NO 40 0 min
17.02.2018 18:10 4,4 C 4,6 C 2,1 C 65 % 65 % 1021,9 hPa 0,0 l/m 1,8 km/h (1 Bft) O-SO 115 0 min
17.02.2018 18:05 4,5 C 4,7 C 2,3 C 64 % 65 % 1021,9 hPa 0,0 l/m 1,2 km/h (1 Bft) NO 50 0 min
17.02.2018 18:00 4,6 C 5,0 C 2,3 C 64 % 65 % 1020,9 hPa 0,0 l/m 1,8 km/h (1 Bft) O-NO 70 0 min
17.02.2018 17:55 4,8 C 5,1 C 2,3 C 63 % 64 % 1020,9 hPa 0,0 l/m 0,6 km/h (0 Bft) N-NO 15 0 min
17.02.2018 17:50 5,1 C 5,3 C 2,7 C 62 % 64 % 1020,9 hPa 0,0 l/m 0,6 km/h (0 Bft) O 80 0 min
17.02.2018 17:45 5,3 C 5,3 C 2,7 C 62 % 63 % 1020,9 hPa 0,0 l/m 1,2 km/h (1 Bft) O-NO 60 0 min
17.02.2018 17:40 5,4 C 5,4 C 2,7 C 61 % 63 % 1020,9 hPa 0,0 l/m 4,8 km/h (1 Bft) O 90 0 min
17.02.2018 17:35 5,6 C 5,5 C 2,7 C 61 % 63 % 1020,9 hPa 0,0 l/m 3,6 km/h (1 Bft) NO 45 0 min
17.02.2018 17:30 5,8 C 5,6 C 2,7 C 60 % 63 % 1019,9 hPa 0,0 l/m 6,7 km/h (2 Bft) NO 55 0 min
17.02.2018 17:25 6,1 C 5,7 C 2,7 C 59 % 63 % 1019,9 hPa 0,0 l/m 8,5 km/h (2 Bft) O-SO 120 0 min
17.02.2018 17:20 6,2 C 5,8 C 2,9 C 59 % 63 % 1019,9 hPa 0,0 l/m 9,7 km/h (2 Bft) O-SO 105 4 min
17.02.2018 17:15 6,4 C 5,9 C 2,9 C 59 % 62 % 1020,9 hPa 0,0 l/m 9,1 km/h (2 Bft) O 80 4 min
17.02.2018 17:10 6,6 C 5,9 C 2,9 C 58 % 62 % 1020,9 hPa 0,0 l/m 5,4 km/h (2 Bft) N-NO 30 6 min
17.02.2018 17:05 6,8 C 6,0 C 2,9 C 57 % 62 % 1020,9 hPa 0,0 l/m 6,1 km/h (2 Bft) O-SO 110 3 min
17.02.2018 17:00 6,9 C 6,1 C 2,9 C 57 % 62 % 1020,9 hPa 0,0 l/m 7,9 km/h (2 Bft) O-SO 105 5 min
17.02.2018 16:55 7,1 C 6,1 C 2,9 C 56 % 61 % 1020,9 hPa 0,0 l/m 8,5 km/h (2 Bft) O 100 4 min
17.02.2018 16:50 7,0 C 6,2 C 2,9 C 56 % 61 % 1020,9 hPa 0,0 l/m 4,2 km/h (1 Bft) N-NO 30 5 min
17.02.2018 16:45 6,9 C 6,2 C 2,9 C 55 % 60 % 1020,9 hPa 0,0 l/m 9,1 km/h (2 Bft) O 90 5 min
17.02.2018 16:40 6,8 C 6,2 C 2,9 C 55 % 60 % 1020,9 hPa 0,0 l/m 9,7 km/h (2 Bft) O-NO 65 5 min
17.02.2018 16:35 6,7 C 6,2 C 2,9 C 56 % 60 % 1020,9 hPa 0,0 l/m 9,7 km/h (2 Bft) O-SO 105 6 min
17.02.2018 16:30 6,6 C 6,2 C 2,9 C 57 % 61 % 1019,9 hPa 0,0 l/m 4,8 km/h (1 Bft) N-NO 30 3 min
17.02.2018 16:25 6,6 C 6,3 C 2,9 C 57 % 60 % 1019,9 hPa 0,0 l/m 7,3 km/h (2 Bft) SO 135 4 min
17.02.2018 16:20 6,6 C 6,3 C 2,9 C 56 % 60 % 1019,9 hPa 0,0 l/m 7,3 km/h (2 Bft) NO 50 6 min
17.02.2018 16:15 6,6 C 6,3 C 3,1 C 55 % 60 % 1020,9 hPa 0,0 l/m 9,1 km/h (2 Bft) O 95 5 min
17.02.2018 16:10 6,6 C 6,3 C 3,1 C 55 % 59 % 1020,9 hPa 0,0 l/m 4,8 km/h (1 Bft) O-SO 115 5 min
17.02.2018 16:05 6,5 C 6,4 C 3,1 C 56 % 60 % 1020,9 hPa 0,0 l/m 7,3 km/h (2 Bft) O 80 5 min
17.02.2018 16:00 6,5 C 6,3 C 3,1 C 57 % 60 % 1019,9 hPa 0,0 l/m 8,5 km/h (2 Bft) SO 130 4 min
17.02.2018 15:55 6,4 C 6,3 C 3,1 C 57 % 60 % 1019,9 hPa 0,0 l/m 2,4 km/h (1 Bft) O 100 6 min
17.02.2018 15:50 6,4 C 6,3 C 3,1 C 58 % 61 % 1019,9 hPa 0,0 l/m 8,5 km/h (2 Bft) O 85 3 min
17.02.2018 15:45 6,3 C 6,3 C 3,1 C 58 % 61 % 1019,9 hPa 0,0 l/m 7,9 km/h (2 Bft) O-SO 105 0 min
17.02.2018 15:40 6,3 C 6,3 C 3,1 C 58 % 61 % 1019,9 hPa 0,0 l/m 10,9 km/h (2 Bft) O 85 0 min
17.02.2018 15:35 6,4 C 6,3 C 3,1 C 58 % 61 % 1019,9 hPa 0,0 l/m 9,7 km/h (2 Bft) O 95 0 min
17.02.2018 15:30 6,4 C 6,3 C 3,1 C 57 % 61 % 1020,9 hPa 0,0 l/m 9,1 km/h (2 Bft) O 100 0 min
17.02.2018 15:25 6,4 C 6,3 C 3,1 C 57 % 61 % 1020,9 hPa 0,0 l/m 7,9 km/h (2 Bft) O-NO 75 2 min
17.02.2018 15:20 6,5 C 6,3 C 3,1 C 58 % 61 % 1020,9 hPa 0,0 l/m 11,5 km/h (2 Bft) O-SO 115 5 min
17.02.2018 15:15 6,5 C 6,4 C 3,1 C 57 % 61 % 1019,9 hPa 0,0 l/m 13,3 km/h (3 Bft) O-NO 60 5 min
17.02.2018 15:10 6,6 C 6,4 C 3,1 C 57 % 61 % 1019,9 hPa 0,0 l/m 5,4 km/h (2 Bft) O 85 6 min
17.02.2018 15:05 6,5 C 6,3 C 3,1 C 57 % 61 % 1019,9 hPa 0,0 l/m 3,0 km/h (1 Bft) NW 310 2 min
17.02.2018 15:00 6,5 C 6,4 C 3,1 C 58 % 61 % 1019,9 hPa 0,0 l/m 4,8 km/h (1 Bft) O 90 6 min
17.02.2018 14:55 6,5 C 6,4 C 3,1 C 57 % 61 % 1019,9 hPa 0,0 l/m 7,3 km/h (2 Bft) SO 145 5 min
17.02.2018 14:50 6,6 C 6,4 C 3,1 C 57 % 60 % 1019,9 hPa 0,0 l/m 4,8 km/h (1 Bft) S-SO 155 5 min
17.02.2018 14:45 6,6 C 6,4 C 3,1 C 57 % 60 % 1019,9 hPa 0,0 l/m 6,1 km/h (2 Bft) O 90 5 min
17.02.2018 14:40 6,5 C 6,4 C 3,1 C 56 % 61 % 1019,9 hPa 0,0 l/m 6,7 km/h (2 Bft) O 100 7 min
17.02.2018 14:35 6,8 C 6,5 C 3,1 C 56 % 62 % 1019,9 hPa 0,0 l/m 4,2 km/h (1 Bft) O-SO 120 3 min
17.02.2018 14:30 6,7 C 6,4 C 3,1 C 56 % 60 % 1019,9 hPa 0,0 l/m 7,3 km/h (2 Bft) NO 35 5 min
17.02.2018 14:25 6,9 C 6,5 C 3,1 C 56 % 61 % 1019,9 hPa 0,0 l/m 4,2 km/h (1 Bft) SO 135 7 min
17.02.2018 14:20 7,1 C 6,4 C 3,1 C 56 % 61 % 1019,9 hPa 0,0 l/m 3,6 km/h (1 Bft) SO 145 3 min
17.02.2018 14:15 6,9 C 6,4 C 2,9 C 56 % 61 % 1019,9 hPa 0,0 l/m 9,1 km/h (2 Bft) O-NO 65 5 min
17.02.2018 14:10 7,0 C 6,4 C 2,9 C 56 % 62 % 1019,9 hPa 0,0 l/m 3,0 km/h (1 Bft) N-NO 15 5 min
17.02.2018 14:05 6,8 C 6,3 C 2,9 C 57 % 61 % 1019,9 hPa 0,0 l/m 12,1 km/h (2 Bft) O 80 3 min
17.02.2018 14:00 6,8 C 6,3 C 2,9 C 56 % 62 % 1019,9 hPa 0,0 l/m 8,5 km/h (2 Bft) S-SO 155 0 min
17.02.2018 13:55 7,1 C 6,3 C 2,7 C 56 % 61 % 1019,9 hPa 0,0 l/m 6,7 km/h (2 Bft) O-SO 105 4 min
17.02.2018 13:50 7,1 C 6,3 C 2,7 C 56 % 62 % 1019,9 hPa 0,0 l/m 6,7 km/h (2 Bft) O-SO 120 4 min
17.02.2018 13:45 7,2 C 6,2 C 2,7 C 55 % 61 % 1019,9 hPa 0,0 l/m 6,1 km/h (2 Bft) O-SO 115 5 min
17.02.2018 13:40 7,0 C 6,2 C 2,7 C 55 % 61 % 1019,9 hPa 0,0 l/m 7,9 km/h (2 Bft) O-SO 110 5 min
17.02.2018 13:35 7,2 C 6,3 C 2,7 C 57 % 63 % 1019,9 hPa 0,0 l/m 12,7 km/h (3 Bft) W-NW 300 5 min
17.02.2018 13:30 7,1 C 6,2 C 2,7 C 59 % 63 % 1019,9 hPa 0,0 l/m 4,2 km/h (1 Bft) O-SO 115 5 min
17.02.2018 13:25 6,7 C 6,0 C 2,7 C 58 % 62 % 1019,9 hPa 0,0 l/m 7,3 km/h (2 Bft) O 85 4 min
17.02.2018 13:20 6,5 C 6,0 C 2,9 C 58 % 63 % 1019,9 hPa 0,0 l/m 10,3 km/h (2 Bft) S 190 9 min
17.02.2018 13:15 6,3 C 5,9 C 2,9 C 59 % 64 % 1020,9 hPa 0,0 l/m 6,1 km/h (2 Bft) O-NO 60 2 min
17.02.2018 13:10 6,3 C 5,8 C 2,7 C 59 % 63 % 1020,9 hPa 0,0 l/m 10,9 km/h (2 Bft) O 80 5 min
17.02.2018 13:05 6,3 C 5,7 C 2,7 C 61 % 65 % 1020,9 hPa 0,0 l/m 7,9 km/h (2 Bft) O 100 4 min
17.02.2018 13:00 6,2 C 5,7 C 2,7 C 61 % 64 % 1019,9 hPa 0,0 l/m 5,4 km/h (2 Bft) NO 45 1 min
17.02.2018 12:55 6,0 C 5,5 C 2,7 C 62 % 65 % 1019,9 hPa 0,0 l/m 3,6 km/h (1 Bft) SO 145 5 min
17.02.2018 12:50 5,9 C 5,5 C 2,5 C 62 % 65 % 1019,9 hPa 0,0 l/m 7,3 km/h (2 Bft) O-SO 120 5 min
17.02.2018 12:45 5,9 C 5,4 C 2,5 C 62 % 65 % 1019,9 hPa 0,0 l/m 4,8 km/h (1 Bft) N-NO 15 5 min
17.02.2018 12:40 5,8 C 5,3 C 2,5 C 62 % 65 % 1019,9 hPa 0,0 l/m 8,5 km/h (2 Bft) O-NO 65 5 min
17.02.2018 12:35 5,8 C 5,3 C 2,5 C 62 % 65 % 1019,9 hPa 0,0 l/m 6,7 km/h (2 Bft) O-NO 75 5 min
17.02.2018 12:30 5,8 C 5,4 C 2,5 C 62 % 65 % 1020,9 hPa 0,0 l/m 9,1 km/h (2 Bft) O-SO 110 5 min
17.02.2018 12:25 5,8 C 5,4 C 2,5 C 63 % 67 % 1020,9 hPa 0,0 l/m 12,1 km/h (2 Bft) O-NO 70 6 min
17.02.2018 12:20 5,7 C 5,3 C 2,3 C 63 % 67 % 1020,9 hPa 0,0 l/m 7,9 km/h (2 Bft) N 5 2 min
17.02.2018 12:15 5,6 C 5,2 C 2,3 C 63 % 67 % 1020,9 hPa 0,0 l/m 7,9 km/h (2 Bft) NO 50 8 min
17.02.2018 12:10 5,6 C 5,1 C 2,3 C 64 % 67 % 1020,9 hPa 0,0 l/m 8,5 km/h (2 Bft) O-SO 110 5 min
17.02.2018 12:05 5,5 C 5,1 C 2,1 C 63 % 67 % 1020,9 hPa 0,0 l/m 7,3 km/h (2 Bft) O-SO 105 3 min
17.02.2018 12:00 5,5 C 5,0 C 2,1 C 64 % 68 % 1020,9 hPa 0,0 l/m 6,1 km/h (2 Bft) O-NO 60 1 min
17.02.2018 11:55 5,4 C 5,0 C 1,9 C 65 % 68 % 1020,9 hPa 0,0 l/m 8,5 km/h (2 Bft) O 85 4 min
17.02.2018 11:50 5,3 C 4,8 C 1,9 C 65 % 69 % 1020,9 hPa 0,0 l/m 10,3 km/h (2 Bft) O 85 4 min
17.02.2018 11:45 5,1 C 4,7 C 1,9 C 66 % 69 % 1019,9 hPa 0,0 l/m 7,3 km/h (2 Bft) N-NO 20 4 min
17.02.2018 11:40 5,0 C 4,5 C 1,7 C 67 % 70 % 1019,9 hPa 0,0 l/m 8,5 km/h (2 Bft) O 100 4 min
17.02.2018 11:35 4,8 C 4,4 C 1,7 C 67 % 69 % 1019,9 hPa 0,0 l/m 13,3 km/h (3 Bft) O 85 5 min
17.02.2018 11:30 4,8 C 4,3 C 1,7 C 67 % 69 % 1019,9 hPa 0,0 l/m 9,7 km/h (2 Bft) O 90 2 min
17.02.2018 11:25 4,7 C 4,3 C 1,5 C 67 % 70 % 1019,9 hPa 0,0 l/m 9,1 km/h (2 Bft) O 100 4 min
17.02.2018 11:20 4,4 C 4,1 C 1,5 C 69 % 72 % 1019,9 hPa 0,0 l/m 9,1 km/h (2 Bft) N 10 2 min
17.02.2018 11:15 4,2 C 4,0 C 1,5 C 72 % 73 % 1019,9 hPa 0,0 l/m 8,5 km/h (2 Bft) S-SO 150 5 min
17.02.2018 11:10 4,1 C 4,0 C 1,5 C 73 % 74 % 1019,9 hPa 0,0 l/m 3,6 km/h (1 Bft) N 350 5 min
17.02.2018 11:05 4,0 C 4,0 C 1,3 C 73 % 73 % 1019,9 hPa 0,0 l/m 6,1 km/h (2 Bft) N-NO 20 5 min
17.02.2018 11:00 4,1 C 3,9 C 1,3 C 70 % 72 % 1019,9 hPa 0,0 l/m 5,4 km/h (2 Bft) O-NO 60 5 min
17.02.2018 10:55 4,1 C 3,8 C 1,3 C 69 % 72 % 1019,9 hPa 0,0 l/m 7,3 km/h (2 Bft) O-SO 120 5 min
17.02.2018 10:50 3,9 C 3,7 C 1,1 C 69 % 71 % 1019,9 hPa 0,0 l/m 10,9 km/h (2 Bft) O 90 6 min
17.02.2018 10:45 3,9 C 3,5 C 1,1 C 70 % 72 % 1018,9 hPa 0,0 l/m 9,1 km/h (2 Bft) O 100 5 min
17.02.2018 10:40 3,7 C 3,5 C 1,1 C 70 % 72 % 1018,9 hPa 0,0 l/m 10,3 km/h (2 Bft) O-NO 65 6 min
17.02.2018 10:35 3,7 C 3,4 C 1,1 C 71 % 73 % 1018,9 hPa 0,0 l/m 7,9 km/h (2 Bft) O-SO 105 3 min
17.02.2018 10:30 3,6 C 3,2 C 1,1 C 71 % 74 % 1020,9 hPa 0,0 l/m 12,1 km/h (2 Bft) O 80 1 min
17.02.2018 10:25 3,3 C 3,1 C 0,8 C 73 % 74 % 1020,9 hPa 0,0 l/m 4,8 km/h (1 Bft) O 90 0 min
17.02.2018 10:20 3,1 C 3,0 C 0,8 C 74 % 75 % 1020,9 hPa 0,0 l/m 12,1 km/h (2 Bft) SO 130 0 min
17.02.2018 10:15 3,1 C 2,9 C 0,8 C 74 % 75 % 1019,9 hPa 0,0 l/m 7,9 km/h (2 Bft) NO 50 0 min
17.02.2018 10:10 3,0 C 2,9 C 0,8 C 74 % 75 % 1019,9 hPa 0,0 l/m 6,1 km/h (2 Bft) O-NO 75 0 min
17.02.2018 10:05 2,9 C 2,9 C 0,6 C 74 % 75 % 1019,9 hPa 0,0 l/m 6,7 km/h (2 Bft) O-NO 60 0 min
17.02.2018 10:00 3,0 C 2,9 C 0,6 C 74 % 75 % 1020,9 hPa 0,0 l/m 8,5 km/h (2 Bft) NO 50 0 min
17.02.2018 09:55 3,0 C 2,9 C 0,6 C 74 % 75 % 1020,9 hPa 0,0 l/m 8,5 km/h (2 Bft) O-SO 120 0 min
17.02.2018 09:50 3,0 C 2,9 C 0,6 C 74 % 74 % 1020,9 hPa 0,0 l/m 4,8 km/h (1 Bft) O 95 0 min
17.02.2018 09:45 3,0 C 2,9 C 0,4 C 73 % 74 % 1019,9 hPa 0,0 l/m 5,4 km/h (2 Bft) O-SO 110 0 min
17.02.2018 09:40 3,1 C 3,0 C 0,4 C 73 % 74 % 1019,9 hPa 0,0 l/m 4,8 km/h (1 Bft) SO 145 0 min
17.02.2018 09:35 3,1 C 3,0 C 0,4 C 72 % 74 % 1019,9 hPa 0,0 l/m 11,5 km/h (2 Bft) S 180 0 min
17.02.2018 09:30 3,2 C 3,0 C 0,4 C 72 % 74 % 1020,9 hPa 0,0 l/m 6,7 km/h (2 Bft) O 95 0 min
17.02.2018 09:25 3,2 C 3,0 C 0,2 C 72 % 74 % 1020,9 hPa 0,0 l/m 6,7 km/h (2 Bft) O 95 0 min
17.02.2018 09:20 3,1 C 2,9 C 0,2 C 72 % 74 % 1020,9 hPa 0,0 l/m 10,9 km/h (2 Bft) O-SO 105 0 min
17.02.2018 09:15 3,0 C 2,7 C 0,2 C 73 % 75 % 1019,9 hPa 0,0 l/m 6,1 km/h (2 Bft) NO 50 0 min
17.02.2018 09:10 2,9 C 2,7 C 0,2 C 73 % 75 % 1019,9 hPa 0,0 l/m 10,9 km/h (2 Bft) SO 130 0 min
17.02.2018 09:05 2,9 C 2,7 C 0,2 C 73 % 75 % 1019,9 hPa 0,0 l/m 10,9 km/h (2 Bft) O-NO 70 0 min
17.02.2018 09:00 2,8 C 2,6 C 0,2 C 74 % 75 % 1019,9 hPa 0,0 l/m 9,1 km/h (2 Bft) N-NO 25 0 min
17.02.2018 08:55 2,7 C 2,5 C 0,2 C 74 % 76 % 1019,9 hPa 0,0 l/m 9,7 km/h (2 Bft) S-SW 210 0 min
17.02.2018 08:50 2,7 C 2,4 C 0,2 C 74 % 76 % 1019,9 hPa 0,0 l/m 9,7 km/h (2 Bft) O-SO 110 0 min
17.02.2018 08:45 2,8 C 2,3 C 0,2 C 74 % 77 % 1020,9 hPa 0,0 l/m 7,3 km/h (2 Bft) O-NO 60 0 min
17.02.2018 08:40 2,8 C 2,2 C 0,2 C 74 % 77 % 1020,9 hPa 0,0 l/m 8,5 km/h (2 Bft) O 80 0 min
17.02.2018 08:35 2,7 C 2,1 C 0,2 C 75 % 78 % 1020,9 hPa 0,0 l/m 8,5 km/h (2 Bft) NO 35 0 min
17.02.2018 08:30 2,6 C 1,9 C 0,2 C 75 % 79 % 1019,9 hPa 0,0 l/m 7,3 km/h (2 Bft) O-SO 110 0 min
17.02.2018 08:25 2,3 C 1,7 C 0,0 C 77 % 80 % 1019,9 hPa 0,0 l/m 3,0 km/h (1 Bft) O 85 0 min
17.02.2018 08:20 2,2 C 1,5 C 0,0 C 78 % 81 % 1019,9 hPa 0,0 l/m 6,7 km/h (2 Bft) O-SO 105 0 min
17.02.2018 08:15 1,8 C 1,2 C 0,0 C 80 % 82 % 1020,9 hPa 0,0 l/m 2,4 km/h (1 Bft) O-SO 110 0 min
17.02.2018 08:10 1,7 C 1,2 C 0,0 C 80 % 82 % 1020,9 hPa 0,0 l/m 2,4 km/h (1 Bft) S-SO 155 0 min
17.02.2018 08:05 1,7 C 1,1 C 0,0 C 80 % 83 % 1020,9 hPa 0,0 l/m 3,0 km/h (1 Bft) S 170 0 min
17.02.2018 08:00 1,6 C 0,9 C 0,0 C 81 % 84 % 1019,9 hPa 0,0 l/m 1,2 km/h (1 Bft) O-SO 120 0 min
17.02.2018 07:55 1,4 C 0,6 C 0,0 C 82 % 85 % 1019,9 hPa 0,0 l/m 2,4 km/h (1 Bft) O 80 0 min
17.02.2018 07:50 1,2 C 0,4 C 0,0 C 83 % 86 % 1019,9 hPa 0,0 l/m 1,8 km/h (1 Bft) O-SO 120 0 min
17.02.2018 07:45 0,8 C 0,2 C 0,0 C 86 % 87 % 1020,9 hPa 0,0 l/m 1,2 km/h (1 Bft) O 85 0 min
17.02.2018 07:40 0,4 C 0,0 C 0,0 C 88 % 88 % 1021,0 hPa 0,0 l/m 0,6 km/h (0 Bft) O 90 0 min
17.02.2018 07:35 0,2 C -0,1 C 0,0 C 88 % 88 % 1021,0 hPa 0,0 l/m 0,6 km/h (0 Bft) NO 35 0 min
17.02.2018 07:30 0,2 C -0,1 C 0,0 C 88 % 89 % 1021,0 hPa 0,0 l/m 0,6 km/h (0 Bft) NO 35 0 min
17.02.2018 07:25 0,2 C -0,2 C 0,0 C 88 % 89 % 1021,0 hPa 0,0 l/m 0,0 km/h (0 Bft) NO 50 0 min
17.02.2018 07:20 0,2 C -0,3 C 0,0 C 88 % 88 % 1021,0 hPa 0,0 l/m 0,0 km/h (0 Bft) NO 50 0 min
17.02.2018 07:15 0,2 C -0,3 C 0,0 C 88 % 88 % 1021,0 hPa 0,0 l/m 0,0 km/h (0 Bft) O 90 0 min
17.02.2018 07:10 0,2 C -0,3 C 0,0 C 88 % 89 % 1021,0 hPa 0,0 l/m 0,6 km/h (0 Bft) O-SO 115 0 min
17.02.2018 07:05 0,1 C -0,4 C 0,0 C 89 % 89 % 1021,0 hPa 0,0 l/m 0,0 km/h (0 Bft) SO 130 0 min
17.02.2018 07:00 0,1 C -0,4 C 0,0 C 89 % 89 % 1021,0 hPa 0,0 l/m 0,0 km/h (0 Bft) S-SO 155 0 min
17.02.2018 06:55 0,0 C -0,5 C 0,0 C 89 % 89 % 1021,0 hPa 0,0 l/m 0,0 km/h (0 Bft) O 90 0 min
17.02.2018 06:50 0,0 C -0,6 C 0,0 C 90 % 88 % 1021,0 hPa 0,0 l/m 0,0 km/h (0 Bft) O-SO 115 0 min
17.02.2018 06:45 0,0 C -0,6 C 0,0 C 90 % 88 % 1020,0 hPa 0,0 l/m 0,0 km/h (0 Bft) SO 130 0 min
17.02.2018 06:40 0,0 C -0,6 C 0,0 C 89 % 88 % 1020,0 hPa 0,0 l/m 0,0 km/h (0 Bft) SO 130 0 min
17.02.2018 06:35 0,0 C -0,5 C 0,0 C 90 % 88 % 1020,0 hPa 0,0 l/m 0,0 km/h (0 Bft) O-SO 115 0 min
17.02.2018 06:30 0,0 C -0,5 C 0,0 C 90 % 88 % 1021,0 hPa 0,0 l/m 0,0 km/h (0 Bft) SO 145 0 min
17.02.2018 06:25 0,0 C -0,4 C 0,0 C 90 % 88 % 1021,0 hPa 0,0 l/m 0,0 km/h (0 Bft) SO 130 0 min
17.02.2018 06:20 0,0 C -0,4 C 0,0 C 90 % 88 % 1021,0 hPa 0,0 l/m 0,0 km/h (0 Bft) SO 135 0 min
17.02.2018 06:15 -0,1 C -0,4 C 0,0 C 91 % 88 % 1021,0 hPa 0,0 l/m 0,0 km/h (0 Bft) O 80 0 min
17.02.2018 06:10 0,0 C -0,3 C 0,0 C 90 % 88 % 1021,0 hPa 0,0 l/m 0,0 km/h (0 Bft) N-NO 30 0 min
17.02.2018 06:05 0,0 C -0,3 C 0,0 C 90 % 88 % 1021,0 hPa 0,0 l/m 0,0 km/h (0 Bft) N-NO 30 0 min
17.02.2018 06:00 0,0 C -0,3 C 0,0 C 90 % 88 % 1021,0 hPa 0,0 l/m 0,0 km/h (0 Bft) NO 40 0 min
17.02.2018 05:55 0,0 C -0,3 C 0,0 C 91 % 88 % 1021,0 hPa 0,0 l/m 0,0 km/h (0 Bft) NO 40 0 min
17.02.2018 05:50 0,0 C -0,4 C 0,0 C 91 % 88 % 1021,0 hPa 0,0 l/m 0,0 km/h (0 Bft) S-SO 150 0 min
17.02.2018 05:45 0,0 C -0,4 C 0,0 C 91 % 88 % 1021,0 hPa 0,0 l/m 0,0 km/h (0 Bft) S-SO 150 0 min
17.02.2018 05:40 0,0 C -0,3 C 0,0 C 91 % 88 % 1021,0 hPa 0,0 l/m 0,0 km/h (0 Bft) SO 135 0 min
17.02.2018 05:35 0,0 C -0,3 C 0,0 C 91 % 88 % 1021,0 hPa 0,0 l/m 0,0 km/h (0 Bft) NO 35 0 min
17.02.2018 05:30 -0,1 C -0,3 C 0,0 C 91 % 88 % 1021,0 hPa 0,0 l/m 0,0 km/h (0 Bft) NO 35 0 min
17.02.2018 05:25 -0,2 C -0,3 C 0,0 C 92 % 88 % 1021,0 hPa 0,0 l/m 0,0 km/h (0 Bft) N-NO 15 0 min
17.02.2018 05:20 -0,3 C -0,4 C 0,0 C 92 % 89 % 1021,0 hPa 0,0 l/m 0,0 km/h (0 Bft) NO 35 0 min
17.02.2018 05:15 -0,4 C -0,5 C 0,0 C 91 % 88 % 1022,0 hPa 0,0 l/m 0,0 km/h (0 Bft) N-NO 30 0 min
17.02.2018 05:10 -0,4 C -0,5 C 0,0 C 91 % 88 % 1022,0 hPa 0,0 l/m 0,0 km/h (0 Bft) NO 40 0 min
17.02.2018 05:05 -0,3 C -0,6 C 0,0 C 91 % 88 % 1022,0 hPa 0,0 l/m 0,0 km/h (0 Bft) NO 35 0 min
17.02.2018 05:00 -0,3 C -0,5 C 0,0 C 90 % 88 % 1022,0 hPa 0,0 l/m 0,0 km/h (0 Bft) W 265 0 min
17.02.2018 04:55 -0,1 C -0,4 C 0,0 C 90 % 88 % 1022,0 hPa 0,0 l/m 0,0 km/h (0 Bft) N 10 0 min
17.02.2018 04:50 -0,1 C -0,4 C 0,0 C 90 % 88 % 1022,0 hPa 0,0 l/m 0,0 km/h (0 Bft) NO 40 0 min
17.02.2018 04:45 -0,1 C -0,3 C 0,0 C 91 % 88 % 1022,0 hPa 0,0 l/m 0,0 km/h (0 Bft) O 100 0 min
17.02.2018 04:40 -0,1 C -0,4 C 0,0 C 91 % 88 % 1022,0 hPa 0,0 l/m 0,0 km/h (0 Bft) SO 145 0 min
17.02.2018 04:35 -0,2 C -0,4 C 0,0 C 91 % 88 % 1022,0 hPa 0,0 l/m 0,0 km/h (0 Bft) O 85 0 min
17.02.2018 04:30 -0,2 C -0,4 C 0,0 C 91 % 88 % 1023,0 hPa 0,0 l/m 0,0 km/h (0 Bft) O-NO 70 0 min
17.02.2018 04:25 -0,2 C -0,3 C 0,0 C 90 % 87 % 1023,0 hPa 0,0 l/m 0,0 km/h (0 Bft) NO 40 0 min
17.02.2018 04:20 -0,1 C -0,3 C 0,0 C 90 % 87 % 1023,0 hPa 0,0 l/m 0,0 km/h (0 Bft) N 355 0 min
17.02.2018 04:15 -0,1 C -0,3 C 0,0 C 90 % 88 % 1022,0 hPa 0,0 l/m 0,0 km/h (0 Bft) NO 40 0 min
17.02.2018 04:10 0,0 C -0,2 C 0,0 C 91 % 88 % 1022,0 hPa 0,0 l/m 0,0 km/h (0 Bft) O-NO 60 0 min
17.02.2018 04:05 -0,1 C -0,3 C 0,0 C 91 % 87 % 1022,0 hPa 0,0 l/m 0,0 km/h (0 Bft) S 175 0 min
17.02.2018 04:00 -0,2 C -0,2 C 0,0 C 91 % 87 % 1023,0 hPa 0,0 l/m 0,0 km/h (0 Bft) O 80 0 min
17.02.2018 03:55 -0,3 C -0,3 C 0,0 C 91 % 87 % 1023,0 hPa 0,0 l/m 0,0 km/h (0 Bft) NO 40 0 min
17.02.2018 03:50 -0,3 C -0,3 C 0,0 C 91 % 87 % 1023,0 hPa 0,0 l/m 0,0 km/h (0 Bft) N-NO 25 0 min
17.02.2018 03:45 -0,2 C -0,2 C 0,0 C 90 % 87 % 1023,0 hPa 0,0 l/m 0,0 km/h (0 Bft) N-NO 25 0 min
17.02.2018 03:40 -0,1 C -0,1 C 0,0 C 90 % 87 % 1023,0 hPa 0,0 l/m 0,0 km/h (0 Bft) N-NO 15 0 min
17.02.2018 03:35 -0,1 C -0,1 C 0,0 C 90 % 87 % 1023,0 hPa 0,0 l/m 0,0 km/h (0 Bft) N-NO 30 0 min
17.02.2018 03:30 -0,1 C -0,1 C 0,0 C 90 % 87 % 1023,0 hPa 0,0 l/m 0,0 km/h (0 Bft) NO 40 0 min
17.02.2018 03:25 0,0 C -0,1 C 0,0 C 89 % 86 % 1023,0 hPa 0,0 l/m 0,0 km/h (0 Bft) NO 35 0 min
17.02.2018 03:20 0,0 C 0,0 C 0,0 C 89 % 85 % 1023,0 hPa 0,0 l/m 0,0 km/h (0 Bft) N-NO 30 0 min
17.02.2018 03:15 0,1 C 0,0 C 0,0 C 89 % 86 % 1023,0 hPa 0,0 l/m 0,0 km/h (0 Bft) O-NO 70 0 min
17.02.2018 03:10 0,2 C 0,1 C 0,0 C 88 % 86 % 1023,0 hPa 0,0 l/m 0,0 km/h (0 Bft) O 80 0 min
17.02.2018 03:05 0,2 C 0,1 C 0,2 C 88 % 86 % 1023,0 hPa 0,0 l/m 0,0 km/h (0 Bft) SO 130 0 min
17.02.2018 03:00 0,3 C 0,1 C 0,2 C 88 % 86 % 1022,0 hPa 0,0 l/m 0,0 km/h (0 Bft) O 100 0 min
17.02.2018 02:55 0,3 C 0,1 C 0,2 C 88 % 86 % 1022,0 hPa 0,0 l/m 0,6 km/h (0 Bft) SO 135 0 min
17.02.2018 02:50 0,3 C 0,2 C 0,2 C 88 % 86 % 1022,0 hPa 0,0 l/m 0,6 km/h (0 Bft) O-SO 110 0 min
17.02.2018 02:45 0,4 C 0,2 C 0,2 C 87 % 86 % 1024,0 hPa 0,0 l/m 3,0 km/h (1 Bft) O-SO 110 0 min
17.02.2018 02:40 0,4 C 0,2 C 0,2 C 87 % 86 % 1024,0 hPa 0,0 l/m 1,8 km/h (1 Bft) O-SO 105 0 min
17.02.2018 02:35 0,5 C 0,3 C 0,2 C 87 % 86 % 1024,0 hPa 0,0 l/m 0,6 km/h (0 Bft) SO 125 0 min
17.02.2018 02:30 0,5 C 0,3 C 0,2 C 87 % 86 % 1023,0 hPa 0,0 l/m 0,6 km/h (0 Bft) O-SO 120 0 min
17.02.2018 02:25 0,5 C 0,3 C 0,2 C 87 % 86 % 1023,0 hPa 0,0 l/m 1,2 km/h (1 Bft) S-SO 160 0 min
17.02.2018 02:20 0,5 C 0,3 C 0,2 C 87 % 86 % 1023,0 hPa 0,0 l/m 1,2 km/h (1 Bft) S-SO 160 0 min
17.02.2018 02:15 0,6 C 0,3 C 0,2 C 87 % 86 % 1024,0 hPa 0,0 l/m 0,0 km/h (0 Bft) N-NO 20 0 min
17.02.2018 02:10 0,6 C 0,3 C 0,2 C 87 % 86 % 1024,0 hPa 0,0 l/m 1,2 km/h (1 Bft) NO 35 0 min
17.02.2018 02:05 0,6 C 0,3 C 0,2 C 87 % 86 % 1024,0 hPa 0,0 l/m 2,4 km/h (1 Bft) O-SO 105 0 min
17.02.2018 02:00 0,6 C 0,2 C 0,2 C 88 % 87 % 1023,0 hPa 0,0 l/m 3,6 km/h (1 Bft) SO 145 0 min
17.02.2018 01:55 0,4 C 0,2 C 0,2 C 88 % 87 % 1023,0 hPa 0,0 l/m 4,2 km/h (1 Bft) O-SO 115 0 min
17.02.2018 01:50 0,4 C 0,2 C 0,2 C 88 % 87 % 1023,0 hPa 0,0 l/m 3,6 km/h (1 Bft) O 90 0 min
17.02.2018 01:45 0,4 C 0,2 C 0,2 C 89 % 87 % 1023,0 hPa 0,0 l/m 1,8 km/h (1 Bft) O 80 0 min
17.02.2018 01:40 0,5 C 0,2 C 0,2 C 89 % 87 % 1023,0 hPa 0,0 l/m 2,4 km/h (1 Bft) O 100 0 min
17.02.2018 01:35 0,5 C 0,3 C 0,4 C 89 % 87 % 1023,0 hPa 0,0 l/m 1,8 km/h (1 Bft) N 0 0 min
17.02.2018 01:30 0,6 C 0,3 C 0,4 C 89 % 87 % 1023,0 hPa 0,0 l/m 1,8 km/h (1 Bft) O-SO 120 0 min
17.02.2018 01:25 0,6 C 0,3 C 0,4 C 89 % 87 % 1023,0 hPa 0,0 l/m 1,8 km/h (1 Bft) SO 125 0 min
17.02.2018 01:20 0,6 C 0,3 C 0,4 C 89 % 87 % 1023,0 hPa 0,0 l/m 1,2 km/h (1 Bft) O 100 0 min
17.02.2018 01:15 0,5 C 0,2 C 0,4 C 89 % 87 % 1023,0 hPa 0,0 l/m 1,2 km/h (1 Bft) SO 140 0 min
17.02.2018 01:10 0,5 C 0,3 C 0,4 C 89 % 87 % 1023,0 hPa 0,0 l/m 1,8 km/h (1 Bft) SO 125 0 min
17.02.2018 01:05 0,6 C 0,3 C 0,4 C 89 % 87 % 1023,0 hPa 0,0 l/m 3,6 km/h (1 Bft) SO 135 0 min
17.02.2018 01:00 0,6 C 0,3 C 0,4 C 89 % 87 % 1024,0 hPa 0,0 l/m 2,4 km/h (1 Bft) O 90 0 min
17.02.2018 00:55 0,5 C 0,3 C 0,4 C 89 % 87 % 1024,0 hPa 0,0 l/m 1,2 km/h (1 Bft) SO 125 0 min
17.02.2018 00:50 0,5 C 0,3 C 0,4 C 89 % 86 % 1024,0 hPa 0,0 l/m 1,2 km/h (1 Bft) SO 135 0 min
17.02.2018 00:45 0,5 C 0,3 C 0,4 C 89 % 86 % 1023,0 hPa 0,0 l/m 0,6 km/h (0 Bft) SO 145 0 min
17.02.2018 00:40 0,5 C 0,4 C 0,4 C 89 % 86 % 1023,0 hPa 0,0 l/m 3,0 km/h (1 Bft) O-SO 120 0 min
17.02.2018 00:35 0,4 C 0,3 C 0,4 C 89 % 86 % 1023,0 hPa 0,0 l/m 0,6 km/h (0 Bft) SO 140 0 min
17.02.2018 00:30 0,3 C 0,4 C 0,4 C 89 % 86 % 1023,0 hPa 0,0 l/m 1,2 km/h (1 Bft) SO 130 0 min
17.02.2018 00:25 0,4 C 0,4 C 0,4 C 89 % 85 % 1023,0 hPa 0,0 l/m 1,8 km/h (1 Bft) O-SO 115 0 min
17.02.2018 00:20 0,5 C 0,5 C 0,4 C 89 % 85 % 1023,0 hPa 0,0 l/m 1,8 km/h (1 Bft) O-SO 120 0 min
17.02.2018 00:15 0,5 C 0,5 C 0,4 C 88 % 85 % 1024,0 hPa 0,0 l/m 2,4 km/h (1 Bft) O-SO 120 0 min
17.02.2018 00:10 0,6 C 0,5 C 0,4 C 87 % 85 % 1024,0 hPa 0,0 l/m 3,6 km/h (1 Bft) SO 130 0 min
17.02.2018 00:05 0,7 C 0,6 C 0,4 C 86 % 85 % 1024,0 hPa 0,0 l/m 3,6 km/h (1 Bft) SO 140 0 min
17.02.2018 00:00 0,9 C 0,6 C 0,4 C 86 % 85 % 1025,0 hPa 0,0 l/m 2,4 km/h (1 Bft) SO 140 0 min
_ Min-Zeit 05:10 05:05 03:10 13:40 16:10 10:40 - 02:15 - - -
Minimum _ -0,4 C -0,6 C 0,0 C 55 % 59 % 1018,9 hPa - 0,0 km/h (0 Bft) - - -
_ Max-Zeit 13:35 14:25 14:20 05:20 05:20 00:00 00:00 11:35 - - 13:20
Maximum _ 7,2 C 6,5 C 3,1 C 92 % 89 % 1025,0 hPa 0,0 l/m 13,3 km/h
O (3 Bft)
- - 9 min
Durchschnitt _ 2,9 C 2,6 C 1,2 C 75 % 75 % 1021,4 hPa #0,0 l/m 3,8 km/h (1 Bft) O - #5:50 h